Theta_e
269 268 269 268 268 269 269 268 267 267 267 267 267 268 268 269 269 268 268 268 268 269 269 269 270 271 271 271 273 275 277 277 277 277 278 279 279 279 280 281 282 282 283 283 283 284 284 284 285 285 285 285 285 285 285 286 286 287 288 288 288 288 288 288 289 289 288 287 288 288 288 287 286 286 286 285 284 284 284 284 284 284 286 287 287
268 268 268 268 268 268 267 267 267 267 267 267 267 267 267 267 267 267 267 268 268 268 268 269 269 270 270 271 272 275 276 276 276 276 276 277 279 280 281 282 282 283 283 283 283 284 284 284 285 285 284 285 285 285 285 285 285 286 287 288 288 288 288 288 288 289 288 286 286 287 286 286 286 286 286 286 286 285 284 284 284 284 285 286 287
268 268 267 267 267 267 267 267 267 267 267 267 267 267 267 267 267 267 267 267 268 268 268 268 269 269 270 272 273 275 275 275 275 275 275 275 276 278 281 282 283 283 283 283 283 283 284 285 285 285 285 285 285 285 285 285 285 286 286 287 288 288 288 288 288 288 288 286 285 285 285 285 285 286 286 286 286 285 285 285 284 284 284 284 286
267 267 267 267 267 267 267 267 267 266 266 266 266 266 266 266 267 267 267 268 268 268 268 268 269 270 271 272 273 273 273 273 274 274 274 274 275 276 278 281 282 283 284 284 284 284 284 284 285 285 285 285 285 285 285 285 286 286 286 286 287 288 288 288 287 288 288 287 285 284 285 285 285 285 286 285 284 284 284 284 283 283 283 283 284
267 267 267 267 267 267 266 266 266 266 266 266 266 266 266 266 267 267 267 268 268 268 269 269 270 270 271 271 271 272 272 272 273 274 274 274 274 275 276 279 280 281 283 284 284 284 284 284 285 285 285 285 285 285 286 286 286 286 286 286 287 288 288 288 288 287 288 288 286 284 284 284 283 283 284 284 283 282 282 282 283 283 283 283 283
267 266 266 266 266 266 266 266 266 266 266 266 266 266 266 267 267 267 267 267 268 269 269 269 269 269 269 269 270 270 271 271 272 273 273 273 274 274 275 277 278 279 281 282 283 284 284 285 285 285 285 285 285 286 286 286 286 286 285 286 287 288 288 288 288 287 287 288 287 283 281 282 282 281 282 283 283 282 281 281 281 282 282 282 282
266 266 266 266 266 266 266 266 266 266 266 266 266 266 266 267 266 267 267 267 267 268 269 269 268 268 268 268 269 270 271 271 271 272 273 273 273 274 274 275 277 278 279 281 282 283 284 284 285 285 285 285 286 286 286 286 286 286 285 286 286 287 288 288 288 288 287 287 287 285 282 281 282 281 281 282 282 283 283 281 280 281 281 281 282
266 266 266 266 266 266 266 266 266 266 266 266 266 266 266 267 267 267 267 267 267 268 268 268 268 268 268 268 269 270 270 271 271 271 272 272 273 273 274 275 276 278 278 279 281 282 283 284 284 285 285 285 286 286 286 286 286 286 285 286 286 287 288 287 288 288 287 287 287 286 283 281 281 282 281 280 280 281 282 282 281 281 281 281 281
265 265 265 265 266 266 266 266 266 266 266 266 266 266 266 266 267 267 267 267 267 267 267 267 267 267 267 268 268 269 270 270 270 271 272 272 273 273 274 275 276 277 278 279 279 281 283 283 284 284 285 285 286 286 286 286 286 286 286 286 286 286 287 287 287 288 288 288 288 286 284 282 281 281 281 280 281 282 282 282 281 281 281 281 280
265 265 265 265 265 265 265 265 266 266 266 266 266 266 266 266 266 267 267 267 267 267 267 267 267 267 267 268 268 268 269 269 270 271 272 273 274 274 275 275 276 277 278 278 279 280 281 283 284 284 285 285 285 286 286 286 286 286 287 287 286 286 287 287 287 287 287 288 287 286 284 283 282 282 282 281 282 282 282 281 281 281 281 280 280
264 264 265 265 265 265 265 265 265 266 266 266 266 266 266 266 266 267 267 267 267 267 267 267 267 267 268 268 268 269 269 269 270 271 273 274 275 275 275 276 276 277 278 279 279 279 280 282 283 284 284 285 285 285 285 286 286 286 286 287 287 286 287 287 287 287 287 287 287 286 284 284 283 283 283 282 282 282 282 282 282 281 280 280 280
264 264 264 265 265 265 265 265 265 265 265 266 266 266 266 266 266 267 267 267 267 267 267 267 268 268 268 268 269 269 269 270 271 272 273 274 275 276 276 277 277 278 278 279 279 279 280 280 281 282 283 284 285 285 285 285 286 286 286 286 287 287 286 287 287 287 286 287 286 285 284 284 284 283 283 283 282 282 282 282 281 281 280 280 280
264 264 264 264 264 264 264 265 265 265 265 265 265 266 266 266 266 266 267 267 267 267 268 268 268 268 268 269 269 269 270 271 271 273 274 275 276 276 277 277 278 278 279 279 279 279 280 280 280 281 282 283 284 284 284 285 285 285 286 286 286 286 286 286 287 287 287 287 286 285 285 285 284 283 284 283 282 282 281 281 281 281 281 281 281
263 264 264 264 264 264 264 264 265 265 265 265 265 266 266 266 266 266 267 267 267 268 268 268 268 269 269 269 270 270 271 272 273 274 275 276 276 277 277 278 278 278 279 279 279 279 279 280 280 281 281 282 283 283 284 284 284 285 285 285 286 286 286 286 286 286 287 287 286 286 286 285 285 285 284 283 283 282 282 282 282 282 281 281 281
263 263 263 264 264 264 264 264 264 265 265 265 265 265 266 266 266 266 267 267 267 268 268 268 269 269 269 270 270 271 272 273 273 274 276 277 277 278 278 278 278 279 279 279 279 279 279 280 280 281 281 282 282 283 283 283 284 284 285 285 285 286 286 286 286 286 286 286 286 286 286 286 286 286 285 284 284 284 284 283 283 282 281 281 281
263 263 263 263 263 264 264 264 264 264 264 265 265 265 266 266 266 266 267 267 267 268 268 269 269 269 270 270 271 271 273 274 275 276 277 278 278 279 279 279 279 279 279 279 279 280 280 280 281 281 281 282 282 283 283 283 283 284 284 285 285 285 286 286 285 285 285 285 286 286 286 286 286 286 286 285 284 284 284 283 282 282 281 280 279
263 263 263 263 263 263 263 264 264 264 264 265 265 265 265 266 266 266 267 267 268 268 268 269 269 270 270 271 271 272 274 275 276 277 278 279 280 280 280 280 280 281 281 280 280 280 280 280 281 281 281 282 282 283 283 283 283 283 284 285 285 285 285 285 285 285 285 285 285 285 285 286 286 286 286 286 285 284 283 282 281 281 280 279 278
262 262 263 263 263 263 263 263 264 264 264 264 265 265 265 266 266 267 267 267 268 268 269 269 270 270 271 272 272 273 274 276 277 278 279 280 281 282 282 282 282 282 282 282 282 281 281 281 281 281 282 282 282 283 283 283 283 283 284 285 285 285 285 285 285 284 284 284 285 285 285 285 285 285 285 285 285 284 283 282 281 281 280 279 278
262 262 262 262 263 263 263 263 263 264 264 264 265 265 265 266 266 267 267 268 268 269 269 269 270 271 272 272 273 274 275 276 277 278 278 280 281 281 282 283 283 283 283 283 283 283 283 283 282 282 282 282 283 283 283 283 284 284 284 284 284 284 284 285 284 284 284 284 284 285 285 285 285 284 285 284 284 284 284 283 282 281 280 280 279
262 262 262 262 262 263 263 263 263 264 264 264 265 265 266 266 267 267 267 268 268 269 269 270 270 272 272 273 274 274 275 276 278 278 278 279 280 280 281 282 282 283 283 283 284 284 284 284 284 284 283 283 283 284 284 284 285 284 284 284 284 284 284 285 285 284 284 284 283 284 284 285 285 284 284 284 284 284 283 283 283 282 281 280 279
262 262 262 262 262 262 263 263 264 264 264 265 265 266 266 267 267 267 268 268 269 269 270 270 271 272 273 274 275 276 277 277 278 279 279 279 280 280 280 281 282 282 282 282 283 283 284 284 284 284 284 284 284 284 285 285 285 285 284 284 285 285 284 284 284 284 284 284 283 283 284 285 285 285 284 284 283 283 283 282 282 282 282 281 279
261 262 262 262 262 262 263 263 264 264 265 265 266 266 267 267 267 268 268 269 269 270 270 271 272 273 274 275 276 277 278 278 279 279 279 279 280 280 280 280 281 281 282 282 281 282 283 284 284 284 285 285 285 285 285 285 286 285 285 285 285 285 284 284 284 283 283 283 283 283 283 284 284 284 284 284 283 283 283 282 282 282 282 282 281
261 261 261 262 262 263 263 263 264 264 265 266 266 266 267 268 268 268 269 269 270 270 271 272 272 273 274 276 277 278 279 279 279 280 279 279 280 280 280 280 280 281 281 281 281 281 281 282 283 283 284 284 285 285 285 285 286 286 286 285 285 285 284 284 284 283 283 283 282 282 283 283 284 284 284 283 283 282 282 281 281 281 281 281 281
261 261 261 262 262 263 263 264 264 265 266 266 266 267 267 268 268 269 269 270 270 271 272 273 273 274 275 276 277 279 279 280 280 280 280 279 279 280 280 280 280 280 281 281 281 281 281 281 281 282 283 283 284 285 285 285 285 285 286 286 285 285 285 284 283 283 283 282 282 282 282 283 283 283 283 283 283 282 281 280 280 280 280 280 280
261 261 261 262 262 263 263 264 265 265 266 266 267 267 268 268 269 269 270 270 271 271 272 273 274 275 275 276 277 279 280 280 280 280 280 280 280 280 280 280 280 280 280 281 281 281 281 281 281 281 281 282 283 284 284 285 285 285 285 286 285 285 285 284 284 283 283 282 282 282 283 282 282 282 282 283 282 282 281 280 279 279 279 279 279
261 261 261 262 262 263 264 264 265 266 266 267 267 268 268 269 269 270 271 271 272 273 274 274 275 276 277 278 279 280 281 281 281 281 281 281 281 280 280 280 280 280 280 281 281 281 281 281 281 281 282 282 282 283 283 284 284 285 285 285 286 285 285 284 284 283 283 283 282 282 282 282 282 282 282 282 281 281 280 280 279 278 277 278 277
261 261 261 262 262 263 264 264 265 266 266 267 267 268 269 270 270 271 272 272 273 274 275 276 277 278 278 279 280 281 281 281 281 281 281 281 281 280 280 280 280 281 281 281 281 281 281 281 281 281 282 282 282 282 282 282 283 284 285 285 285 285 285 285 284 284 283 283 282 282 282 282 281 281 280 280 280 279 279 279 278 277 276 277 276
261 261 261 262 262 263 264 264 265 266 267 267 268 269 269 270 271 272 273 274 275 276 277 278 279 279 280 281 281 281 281 282 282 281 281 281 281 280 280 280 280 280 280 281 281 281 280 281 281 281 282 282 282 282 282 282 282 283 284 285 285 286 285 285 284 284 283 282 281 281 280 280 280 279 278 278 277 277 277 277 277 276 276 276 275
261 261 261 262 263 263 264 265 265 266 267 268 268 269 270 271 272 273 274 275 276 277 278 279 279 280 280 281 281 281 281 282 282 281 281 281 281 280 280 280 280 280 280 280 280 280 280 280 280 280 281 282 282 282 282 282 282 282 283 284 285 285 284 284 283 282 282 281 280 279 278 278 277 276 276 276 275 275 275 276 276 275 275 275 274
261 261 261 262 263 263 264 265 265 266 267 268 268 270 271 272 273 274 274 275 276 277 278 278 279 279 280 281 281 281 281 281 281 281 281 280 280 280 280 280 280 279 279 279 280 279 279 279 278 279 279 279 280 280 280 280 280 280 281 282 283 283 282 281 281 280 280 280 279 278 277 275 274 274 274 274 273 273 274 274 275 275 274 274 272
261 261 262 262 263 264 264 265 266 266 267 268 268 269 271 272 273 273 274 274 275 276 277 277 278 279 279 280 280 280 280 280 280 280 280 280 279 279 279 279 279 279 278 279 278 277 277 276 276 276 277 277 277 277 278 278 278 278 278 278 279 280 280 279 279 278 278 277 276 275 274 274 273 272 273 272 272 272 272 273 273 273 273 273 272
261 261 262 262 263 264 264 265 266 266 267 268 269 269 270 271 272 272 273 273 274 275 275 276 276 277 278 279 279 278 279 279 279 279 279 279 278 278 278 278 277 277 278 278 277 275 275 275 274 275 275 275 275 275 276 276 276 276 276 275 275 276 276 276 276 276 276 274 273 272 272 272 272 271 271 271 271 271 271 271 272 272 272 272 271
261 261 262 262 263 263 264 265 266 266 267 268 269 270 270 271 272 272 272 272 273 274 274 274 275 276 277 277 278 277 277 277 278 278 278 278 277 277 276 276 276 276 277 276 274 273 273 273 273 273 273 273 273 274 274 274 274 274 274 273 273 273 273 274 274 275 274 274 273 272 272 271 271 270 270 270 270 270 270 271 271 271 271 270 269
261 261 262 262 263 263 264 265 266 266 267 268 269 269 270 271 272 272 272 272 272 272 273 273 273 274 275 275 276 276 276 276 276 276 276 276 276 276 276 276 276 275 275 274 273 272 272 271 271 272 272 272 273 273 273 273 273 273 273 273 272 272 273 273 274 274 274 273 273 272 272 271 271 270 269 269 269 270 270 270 270 271 270 269 268
261 261 262 262 263 263 264 265 266 266 267 268 268 269 270 271 271 271 271 271 271 271 271 271 272 272 273 274 274 274 274 274 274 274 274 274 275 276 277 275 274 273 273 273 272 271 271 271 271 271 271 272 272 272 272 272 272 272 272 272 272 272 272 273 273 273 273 273 272 272 271 271 271 270 270 270 270 269 269 269 270 270 270 269 267
261 261 261 262 263 263 264 265 266 266 267 267 268 269 270 271 271 270 270 271 270 270 270 270 270 271 271 272 272 272 272 272 272 272 272 272 273 275 274 271 270 270 270 271 271 271 271 271 271 271 271 271 272 272 272 272 272 272 272 272 272 272 272 272 272 272 271 271 271 270 270 270 269 270 270 269 269 269 269 269 269 269 269 268 267
261 261 261 262 262 263 264 265 265 266 266 267 268 269 270 270 270 270 270 270 270 270 270 269 269 269 270 270 270 270 270 271 271 272 271 271 272 272 270 269 269 269 269 269 270 270 270 270 270 271 271 272 272 272 273 272 272 272 272 272 272 272 272 272 272 271 271 270 269 269 269 269 269 269 270 269 269 268 268 269 268 268 268 268 268
260 261 261 262 262 263 264 264 265 265 266 266 267 268 269 269 269 269 269 269 269 269 269 268 268 268 269 269 269 269 269 269 271 271 270 270 270 269 269 269 269 269 269 269 270 270 270 270 270 271 272 272 272 273 273 272 272 272 272 271 271 271 271 271 271 271 270 270 269 269 269 269 269 270 271 271 270 269 269 269 269 268 267 267 268
260 260 261 261 262 263 263 264 264 264 265 266 266 268 269 269 269 269 269 269 269 269 268 268 267 267 268 269 268 268 267 267 267 267 266 267 267 267 267 268 268 269 269 269 269 270 270 270 270 271 272 272 272 273 273 272 272 272 272 271 271 271 271 271 270 270 270 270 269 269 269 270 270 271 272 272 272 270 269 269 269 269 268 268 268
260 260 261 261 262 262 263 263 264 264 264 265 266 267 268 268 268 268 268 268 268 268 268 267 266 266 267 268 267 266 266 265 265 265 264 265 265 265 266 266 267 268 268 268 269 269 269 269 270 271 272 272 272 272 272 272 272 272 272 272 271 271 270 271 271 270 270 270 270 270 271 271 271 271 272 272 272 271 270 270 270 270 270 269 268
260 260 260 261 261 262 262 263 263 263 264 264 265 266 267 268 268 268 267 267 267 267 267 266 266 265 265 266 266 265 264 264 264 263 263 263 263 264 264 265 266 267 267 268 268 269 269 269 270 270 271 271 272 272 272 272 272 272 272 272 272 271 271 271 271 271 271 271 271 271 272 272 272 272 271 271 271 271 271 270 270 269 269 269 269
260 260 260 261 261 261 262 262 262 263 263 264 264 266 266 267 267 267 267 266 266 265 265 265 265 264 263 264 264 263 263 262 262 262 262 262 262 262 263 264 265 266 267 267 267 268 268 269 269 270 270 271 271 271 271 271 271 272 272 272 272 272 271 271 271 271 272 272 272 272 272 272 272 271 271 271 271 270 270 270 269 269 269 269 268
260 260 260 261 261 261 261 262 262 262 263 263 264 265 266 266 266 266 266 265 265 264 264 264 263 263 262 262 262 261 261 261 261 261 261 261 261 262 262 263 264 265 266 267 267 268 268 269 269 270 270 270 270 270 270 270 270 271 272 272 272 272 272 272 272 272 272 272 272 272 272 271 271 271 271 271 270 270 270 269 269 269 269 268 268
260 260 260 260 261 261 261 261 262 262 262 263 263 264 265 265 265 265 265 264 264 263 263 262 262 262 261 261 260 260 260 260 260 260 260 260 261 261 262 263 264 265 266 267 267 267 268 268 269 270 270 270 270 270 269 269 269 269 270 271 272 272 272 272 272 272 272 272 271 271 271 270 270 270 270 270 270 270 269 269 269 268 268 268 267
259 260 260 260 260 260 261 261 261 262 262 262 262 263 263 264 264 264 264 263 263 262 262 261 261 261 260 260 259 259 259 259 258 259 259 260 261 261 262 262 264 265 265 266 266 267 267 268 268 269 270 270 270 269 269 269 268 268 269 270 270 271 271 271 271 271 271 271 271 271 270 270 270 270 270 270 270 270 269 269 269 268 268 268 267
259 259 260 260 260 260 260 260 261 261 261 262 262 262 262 262 263 263 263 263 262 261 261 260 260 259 259 259 259 258 258 258 258 258 259 260 261 262 262 263 263 264 264 265 265 266 266 267 267 268 268 269 268 268 268 268 268 268 269 269 269 270 270 270 270 270 270 270 271 271 271 270 270 270 270 270 270 269 269 269 268 268 268 267 267
258 259 259 260 260 260 260 260 260 260 261 261 261 261 261 261 262 262 262 262 261 261 260 260 259 258 258 258 258 258 258 258 258 259 260 260 261 262 262 263 264 264 264 265 265 265 266 266 266 267 267 267 267 268 268 268 268 269 269 269 269 269 269 269 270 270 270 270 270 270 270 270 270 270 269 269 269 268 268 268 268 267 267 267 266
258 258 258 259 259 259 260 260 260 260 260 260 261 261 261 261 260 260 260 260 260 260 260 259 258 258 257 257 257 257 257 258 258 259 260 261 261 262 263 263 264 264 264 265 265 265 265 265 266 266 266 266 267 267 267 268 268 268 269 269 269 269 269 269 269 269 269 269 269 269 269 269 269 269 269 268 268 268 267 267 267 267 266 266 265
257 257 258 258 258 259 259 259 259 259 259 259 260 260 260 260 260 260 259 259 259 259 259 258 258 257 257 257 257 257 257 258 259 260 261 261 262 263 263 263 264 264 264 264 264 265 265 265 265 266 266 266 266 267 267 267 268 268 268 269 269 269 269 268 268 268 268 268 268 268 268 268 268 268 268 267 267 267 266 266 266 265 265 264 264
256 256 256 257 257 258 258 258 258 259 259 259 259 259 259 259 259 259 259 259 258 258 258 258 257 257 257 257 257 257 258 258 259 260 262 263 263 263 264 264 264 264 264 264 264 264 265 265 265 265 265 266 266 266 266 267 267 267 268 268 268 268 268 268 268 268 268 267 267 267 267 267 267 267 266 266 266 265 265 265 265 264 264 264 264
255 255 255 256 256 257 257 257 258 258 258 258 258 258 258 259 258 258 258 258 258 257 257 257 257 257 257 257 257 258 258 259 260 261 262 263 263 264 264 264 264 264 264 264 264 264 264 264 265 265 265 265 265 265 265 266 266 266 266 267 267 267 267 267 267 267 266 266 266 266 266 266 266 266 266 265 265 265 265 265 265 264 264 264 264
Wind_Speed
29 27 25 24 24 24 23 22 23 26 28 27 25 23 21 18 17 18 20 21 22 21 22 23 23 23 23 23 24 23 20 18 19 20 21 24 27 26 26 25 25 26 25 26 27 26 27 26 26 27 26 25 24 24 24 24 23 23 23 23 24 25 25 19 11 9 10 13 16 17 21 24 25 27 29 30 31 31 31 32 33 34 34 34 35
27 25 24 25 24 24 25 24 24 25 27 25 22 19 19 20 22 23 23 23 24 24 24 24 25 26 26 25 25 22 17 16 18 20 19 19 20 22 25 25 25 25 25 26 26 26 26 26 26 26 25 24 24 23 23 23 22 22 22 22 23 24 26 24 18 11 9 13 17 17 19 23 26 27 29 29 30 30 30 31 31 32 33 34 34
25 25 25 24 24 24 24 24 24 24 24 23 21 21 22 23 23 24 24 24 24 24 24 25 26 26 25 23 20 17 15 15 16 19 21 21 19 18 19 22 24 25 25 25 26 26 26 26 26 26 24 24 24 24 23 23 22 21 22 23 22 23 25 26 22 16 11 13 18 20 20 23 26 27 28 29 28 27 28 28 30 31 32 33 34
26 25 24 24 24 24 24 24 24 23 23 24 24 24 24 23 24 24 23 24 24 24 23 24 23 22 19 18 16 14 15 16 17 19 21 22 21 20 17 16 17 20 22 24 25 26 27 26 26 25 24 24 24 24 24 23 23 22 22 23 23 23 24 26 25 22 16 13 16 21 23 25 27 27 27 27 26 26 26 26 27 28 30 31 32
25 25 25 24 24 24 24 24 24 24 24 25 25 24 24 23 23 22 21 23 24 23 21 17 16 15 15 15 16 17 19 19 18 19 21 23 23 20 18 17 16 16 18 21 24 25 26 27 26 25 25 25 24 24 24 24 24 23 23 22 23 23 24 25 26 26 21 15 15 19 23 23 24 26 27 28 26 24 23 24 25 26 27 29 30
25 26 25 24 24 24 24 24 24 25 24 24 24 24 23 22 22 22 21 22 23 20 15 13 17 19 19 19 20 21 23 22 21 20 21 23 24 21 19 19 19 17 17 18 21 24 25 26 26 25 25 26 25 24 23 24 25 24 23 23 23 23 23 23 25 26 24 20 16 17 20 23 22 23 26 29 29 26 24 22 22 24 26 27 28
26 26 25 25 25 24 24 24 24 24 24 24 24 23 23 23 22 22 22 21 21 19 16 18 23 24 23 23 24 24 25 25 24 23 23 24 23 22 22 21 20 19 18 17 18 21 24 24 24 25 25 26 26 25 24 24 25 25 25 24 23 22 22 22 23 24 23 21 18 17 20 23 22 21 25 28 27 26 26 24 22 23 25 25 26
26 26 25 25 25 25 25 25 24 24 24 24 24 24 23 23 22 22 21 21 20 20 20 22 25 25 25 25 25 24 25 27 27 25 25 25 24 23 23 21 20 20 20 18 17 18 20 22 23 24 25 26 26 26 25 25 25 25 25 24 23 22 21 21 21 22 21 20 18 18 19 20 19 19 22 24 21 21 26 27 24 24 24 24 25
26 26 26 25 25 26 26 25 25 25 25 25 25 24 23 23 22 21 21 21 22 23 24 25 25 26 26 25 25 25 25 26 27 26 26 25 25 24 23 21 20 20 21 21 19 17 17 18 21 23 24 25 26 26 26 26 26 26 26 24 23 21 20 20 20 19 19 18 16 17 17 17 18 19 20 24 25 24 25 25 22 23 24 23 23
26 26 26 26 26 26 26 26 26 25 25 25 25 24 24 23 22 22 22 23 24 25 25 25 25 25 25 25 25 24 25 26 27 26 25 24 24 23 22 22 21 20 21 22 22 20 17 16 18 21 23 24 24 25 25 26 26 26 26 25 24 23 21 19 18 18 17 15 14 16 15 14 19 22 22 27 29 25 24 24 21 20 20 17 16
27 27 27 27 27 27 27 26 26 26 26 25 25 25 24 23 23 22 22 23 23 24 24 24 24 25 25 25 24 25 26 26 25 24 24 24 24 24 24 23 22 22 22 22 22 22 20 17 17 19 21 23 23 24 25 26 26 26 27 27 26 25 24 20 18 18 17 14 14 17 16 15 21 25 25 26 26 23 26 28 23 21 21 15 11
28 27 27 27 27 27 27 27 27 26 26 25 25 24 24 23 23 22 22 22 22 22 22 23 24 24 24 24 24 25 26 25 23 23 24 23 23 23 24 24 23 23 23 23 23 24 23 21 20 19 20 21 22 22 23 25 26 25 27 29 27 26 26 24 21 19 19 16 13 16 18 19 21 25 25 25 25 24 24 24 24 24 23 19 14
28 28 28 28 28 28 28 28 27 27 26 26 25 24 23 23 23 22 21 21 20 20 20 22 23 23 23 23 24 25 25 24 23 23 23 23 22 23 24 24 24 24 24 24 25 26 25 24 23 22 22 22 22 22 22 24 25 25 26 28 28 27 26 25 24 22 21 20 17 18 22 23 22 25 28 28 26 24 21 21 24 24 23 22 21
28 28 28 28 28 29 29 28 28 27 27 26 26 25 23 23 23 22 21 20 20 20 21 22 23 24 24 24 25 26 25 22 21 21 22 21 21 22 23 24 24 25 26 27 27 28 27 26 26 26 26 25 24 24 23 24 25 26 27 27 28 28 27 24 23 22 22 22 22 22 25 25 24 27 29 28 27 26 25 25 26 25 23 21 20
28 28 28 29 29 30 29 29 29 29 28 27 26 25 24 23 23 23 23 22 22 22 23 23 24 25 24 23 24 26 25 22 20 20 21 20 19 20 22 24 25 26 27 27 28 29 30 29 28 28 28 28 27 26 25 25 25 25 26 27 27 28 28 26 23 22 23 24 25 24 24 25 26 26 27 28 28 28 28 28 26 25 22 18 14
28 28 29 30 30 30 30 30 30 29 29 27 26 25 24 24 25 25 25 24 24 24 24 25 25 25 25 24 24 25 24 21 19 19 19 19 19 21 23 25 25 27 27 28 30 31 31 30 30 30 30 29 29 28 27 26 25 25 26 26 27 28 29 28 24 21 22 24 25 25 24 23 23 24 24 25 27 27 24 22 21 21 19 14 12
29 30 31 30 31 32 32 31 31 30 29 28 27 26 25 26 28 29 26 25 25 25 25 27 26 25 25 24 23 23 24 22 19 19 18 18 18 20 26 28 27 27 28 29 30 31 32 31 30 31 31 30 30 29 28 26 25 26 26 26 27 27 29 30 26 21 21 21 22 22 22 21 20 21 23 23 25 26 23 20 20 21 18 11 8
30 31 32 32 33 33 33 33 32 31 30 30 30 29 28 29 31 30 27 25 26 27 27 27 27 25 24 24 22 21 23 21 18 18 17 15 14 15 16 21 23 26 28 30 30 30 32 32 31 31 31 31 31 30 28 27 26 27 27 27 26 26 27 29 26 22 20 19 18 18 19 19 18 19 21 23 24 26 26 23 23 24 20 13 10
32 33 33 34 35 34 34 33 32 31 32 32 31 30 31 33 32 29 26 25 26 27 27 26 26 25 24 23 21 20 21 21 18 15 15 14 13 13 11 9 10 14 19 24 26 28 29 30 31 31 31 31 30 29 28 27 27 29 28 26 24 25 28 29 27 25 23 22 21 21 19 19 19 19 20 22 24 26 27 26 26 27 23 18 16
34 34 36 36 36 35 35 33 32 32 32 32 32 31 31 33 33 31 28 27 27 28 28 26 26 26 25 24 23 22 21 20 17 14 14 13 12 11 11 10 8 8 9 10 15 19 23 25 27 29 30 30 28 27 26 27 28 30 29 26 25 27 30 31 29 27 26 24 24 24 22 20 20 21 21 23 25 27 28 27 28 29 26 23 22
35 36 37 37 36 36 35 34 33 33 32 32 32 32 31 31 31 30 30 28 28 28 28 26 25 27 27 26 25 24 22 20 18 14 12 12 12 11 12 11 9 8 9 8 7 10 14 17 20 22 25 26 25 24 24 25 27 29 29 29 28 28 28 28 28 26 24 22 21 22 22 22 21 22 23 26 27 28 28 28 28 28 27 25 25
36 37 37 37 37 36 35 35 34 33 32 31 31 31 31 30 29 28 27 26 26 26 26 25 25 27 29 29 27 26 24 21 18 15 12 12 12 11 12 13 11 9 9 9 10 10 10 12 13 14 17 20 21 22 22 23 25 28 30 30 30 26 23 24 25 23 20 19 18 19 20 20 20 20 22 26 28 28 28 29 28 27 27 26 25
37 37 37 36 37 37 36 35 34 32 32 31 30 30 30 29 28 26 24 23 24 24 24 24 24 25 28 30 30 28 25 20 16 14 12 11 11 11 11 12 12 12 11 11 12 12 12 12 12 12 13 16 18 20 21 22 24 26 28 29 28 26 23 22 22 22 21 19 18 18 19 20 19 18 19 23 26 27 28 28 28 27 27 26 24
37 37 36 36 37 37 37 36 34 32 32 31 29 29 29 28 27 25 23 22 21 22 23 24 23 23 25 27 28 28 24 18 14 11 10 9 9 10 10 10 11 13 13 14 14 14 14 15 15 14 14 15 17 18 20 22 24 25 25 26 27 26 24 22 23 23 22 20 20 19 19 19 19 18 19 22 24 26 27 26 25 26 26 24 23
37 36 36 36 36 37 37 37 35 33 32 31 29 28 28 26 25 25 24 22 20 20 22 23 22 22 22 23 24 24 20 15 12 9 8 8 9 9 8 8 9 11 14 15 15 15 15 16 16 15 15 15 16 17 19 21 23 24 25 24 26 27 26 25 24 23 22 22 21 20 20 20 19 18 19 21 24 26 26 25 23 23 23 22 20
37 36 36 36 36 35 35 35 35 34 33 31 29 28 27 25 23 23 23 21 20 20 21 22 22 21 20 21 20 18 17 15 13 11 10 10 9 8 6 5 6 8 12 15 15 15 15 15 16 16 16 16 17 18 19 19 19 22 24 24 26 27 27 26 26 24 22 22 22 22 22 22 21 20 20 22 24 26 27 26 24 22 22 21 18
36 36 35 35 35 33 32 33 34 34 33 31 29 28 27 25 23 22 21 20 20 21 22 22 20 18 18 18 16 15 17 17 14 13 13 13 13 12 10 8 7 5 5 9 11 12 13 13 14 14 15 16 16 17 19 19 18 19 22 24 26 28 27 27 28 27 25 24 24 24 24 24 22 23 23 24 26 27 27 28 27 24 22 22 19
36 35 34 34 33 32 31 31 32 32 33 32 30 27 26 26 25 23 22 21 22 22 20 19 19 20 20 17 15 14 15 14 13 13 13 13 14 14 14 12 11 9 6 4 6 8 10 11 11 13 14 14 14 14 17 20 21 21 21 22 24 26 27 28 28 27 26 26 26 26 26 25 24 25 26 26 26 26 27 27 27 26 25 23 20
35 34 33 32 32 32 31 31 30 30 31 33 33 31 28 25 22 23 24 24 23 22 21 21 22 25 23 18 14 13 12 12 13 13 12 13 13 13 13 12 11 9 7 4 2 3 4 4 4 6 8 10 11 11 11 13 15 17 19 20 20 21 23 25 27 27 27 28 28 28 28 27 26 26 27 26 25 25 26 26 27 26 25 22 20
33 32 32 31 31 31 31 30 30 29 29 30 32 33 32 28 23 21 24 25 24 23 23 23 25 28 26 22 20 19 17 16 15 14 14 13 13 12 12 11 9 8 7 4 1 3 4 5 5 4 5 7 8 9 9 11 11 11 13 16 17 18 20 22 25 27 28 29 30 30 30 29 27 27 27 26 25 25 24 24 26 26 25 22 19
30 30 30 30 31 31 30 29 29 28 28 28 28 28 31 32 30 28 26 26 24 24 24 25 26 27 27 25 24 24 22 20 17 15 15 15 14 13 12 11 10 9 8 4 4 7 8 8 8 7 7 7 8 8 9 11 13 13 14 14 16 18 20 21 23 25 26 27 27 28 28 28 28 27 27 26 26 25 23 23 24 24 23 23 22
30 30 30 30 30 30 29 28 27 27 27 28 26 24 24 25 29 31 31 27 23 22 24 26 27 27 26 25 24 24 23 21 19 17 15 15 14 13 13 13 12 9 6 4 8 10 10 10 10 9 9 9 9 9 10 11 12 13 14 15 15 15 17 20 22 24 25 26 25 25 25 25 26 26 25 26 26 24 23 22 22 22 20 20 21
31 30 29 29 29 29 28 27 26 26 26 26 25 24 22 20 22 27 30 30 27 25 26 27 27 26 26 25 24 23 22 22 22 20 18 16 14 12 12 14 13 10 7 9 12 12 11 11 11 11 11 11 10 11 11 12 13 14 15 16 16 16 17 19 21 23 24 25 25 24 23 23 24 24 23 24 25 25 24 23 22 21 21 19 19
31 29 29 28 28 28 27 27 26 25 25 25 24 24 22 20 20 21 23 26 27 28 29 30 29 27 27 26 24 23 23 23 23 22 20 17 14 10 10 14 16 15 14 15 15 13 12 12 12 11 12 11 11 12 12 12 13 15 16 17 17 18 18 19 21 22 22 23 24 24 24 24 25 25 24 23 22 23 23 23 22 22 21 20 20
31 29 30 29 28 27 28 27 26 25 25 24 24 24 22 20 20 20 19 19 20 21 25 28 29 27 25 25 25 24 23 23 23 23 22 19 15 13 15 18 19 19 18 17 15 14 13 13 12 11 12 12 11 11 12 13 14 15 17 18 19 19 18 18 19 19 20 21 22 23 24 24 25 26 26 25 24 23 23 23 23 22 21 21 21
31 30 30 30 29 28 27 26 25 25 25 24 24 23 21 19 18 19 19 19 18 18 20 24 26 26 25 26 26 24 23 22 22 22 23 22 20 20 22 21 18 18 18 17 15 13 13 12 11 11 11 11 11 12 12 14 14 15 17 18 18 18 17 17 17 18 19 20 21 22 24 24 24 25 25 24 24 24 23 22 21 20 20 21 21
31 30 30 30 29 28 27 25 24 24 24 24 24 22 20 19 19 20 20 19 18 18 20 22 25 27 29 30 28 24 21 22 22 22 23 24 24 25 24 21 18 18 18 17 14 13 13 11 10 9 10 10 11 11 12 13 14 14 15 16 16 16 16 16 17 17 18 19 20 21 23 23 23 24 24 23 21 21 21 21 20 19 19 20 20
31 30 31 30 29 27 26 24 24 24 24 24 24 22 20 19 19 20 21 20 18 18 19 20 22 24 26 27 27 24 22 24 26 27 27 27 26 25 24 22 20 19 18 16 14 13 13 11 10 9 10 10 10 10 10 11 12 13 13 14 15 15 15 15 16 17 18 19 20 21 22 23 23 23 24 24 23 21 21 21 20 20 19 20 20
32 32 32 30 27 26 24 22 23 24 24 25 24 22 20 20 20 20 20 19 18 18 18 19 20 23 24 25 26 25 24 26 27 28 28 29 27 24 23 22 22 21 18 17 15 14 13 11 10 9 9 9 8 8 8 8 9 11 12 13 13 14 14 15 15 16 17 19 20 21 22 23 22 22 21 21 22 22 22 21 21 21 20 19 18
33 32 31 29 26 25 23 21 22 24 24 24 24 21 20 21 21 20 19 19 18 18 18 18 20 22 23 25 26 24 21 20 21 21 24 26 27 25 24 23 23 21 19 18 16 14 13 11 9 8 9 9 9 8 7 6 7 8 9 10 11 13 13 14 15 16 17 19 20 21 21 21 21 19 18 18 19 21 21 21 20 19 20 19 18
32 30 30 29 27 25 23 22 23 24 23 23 23 21 20 20 21 20 19 18 18 18 17 17 19 21 22 23 24 22 19 18 19 21 22 24 24 25 25 24 22 20 19 18 15 14 13 12 11 10 9 9 9 8 6 5 5 6 7 8 10 12 13 13 14 15 16 18 19 19 19 19 18 17 16 17 18 19 19 19 18 17 17 17 16
31 30 29 29 28 26 24 24 24 25 24 24 24 22 20 20 20 20 19 18 18 18 18 17 18 20 22 23 23 22 21 21 23 24 24 23 24 24 25 24 22 20 18 16 15 14 13 12 11 11 10 9 9 8 7 5 4 4 5 7 9 10 12 12 13 14 15 17 17 17 17 17 16 15 15 16 17 17 17 17 17 16 16 16 16
30 29 28 28 27 26 25 24 24 25 24 24 24 22 20 20 20 20 19 18 19 20 19 19 19 20 22 23 23 24 25 24 23 25 26 25 25 25 25 23 22 20 17 15 13 13 12 12 12 11 10 9 9 8 7 6 4 3 3 5 7 8 9 10 11 12 13 14 15 15 15 15 14 14 14 15 15 16 16 16 16 15 15 15 15
30 29 28 27 27 27 26 25 25 25 24 23 23 22 21 21 21 21 20 19 20 20 20 20 20 20 21 24 25 27 27 26 24 25 27 27 25 25 25 23 22 20 18 16 14 13 12 12 12 12 11 10 9 8 8 8 6 4 3 3 5 7 8 9 10 11 12 13 14 14 15 14 14 13 13 14 14 15 15 15 15 14 14 13 13
29 29 28 27 27 27 27 27 26 25 25 25 24 23 22 22 22 22 20 20 20 21 21 21 21 20 20 23 24 25 26 27 26 26 27 27 25 24 24 23 22 21 20 18 16 15 14 13 13 12 12 11 11 10 9 9 8 7 5 4 4 6 7 8 9 10 10 12 13 14 14 14 13 12 12 12 12 12 12 13 13 13 13 13 13
28 28 28 28 27 27 27 27 27 26 25 26 25 23 23 23 22 21 20 20 20 21 21 21 22 21 20 20 21 22 25 27 28 27 27 26 24 23 23 22 22 21 20 19 18 16 15 15 14 13 13 12 11 10 9 9 9 8 7 7 6 7 7 8 8 9 8 9 10 11 12 12 12 11 10 10 11 10 10 11 12 12 12 12 12
27 27 27 26 26 26 27 27 26 25 25 25 24 23 23 23 22 21 21 21 20 21 22 22 23 24 23 22 21 23 26 27 27 27 27 26 25 24 23 23 22 21 20 19 18 17 16 15 14 14 13 12 11 10 9 9 9 9 8 8 8 7 8 8 8 8 7 7 7 7 8 9 10 10 10 10 10 10 10 10 10 11 10 10 10
27 27 27 26 25 26 26 26 26 26 26 25 24 22 22 22 22 22 23 23 21 21 23 24 24 26 28 27 25 25 26 27 27 27 27 26 26 25 24 24 23 22 21 20 19 18 17 16 15 14 13 12 11 11 10 10 10 10 9 9 9 9 9 9 8 8 8 7 6 5 5 5 6 7 8 8 8 8 9 9 9 10 10 10 10
26 26 26 25 24 25 25 25 25 25 25 25 24 23 22 23 23 22 23 25 24 22 22 24 25 27 28 29 28 27 28 28 28 28 28 27 27 26 25 25 24 23 23 22 22 21 19 18 17 16 15 14 13 13 12 12 11 11 10 10 10 10 9 9 9 8 7 6 6 5 5 4 5 5 6 6 7 7 7 7 7 8 8 7 7
26 25 25 24 23 23 23 23 24 24 24 25 25 24 23 24 23 23 23 26 27 26 25 25 26 27 28 29 29 29 29 29 29 29 28 28 27 26 25 24 24 24 23 23 23 22 21 20 19 18 17 16 16 16 15 14 13 13 12 11 11 10 9 9 8 7 6 6 5 5 5 5 5 5 5 5 5 5 4 4 4 4 4 5 5
26 25 25 25 24 24 24 24 24 25 24 24 24 24 24 24 24 23 23 24 26 27 27 27 27 27 28 29 30 30 30 30 29 29 29 28 27 26 25 24 24 23 23 22 22 21 21 20 19 19 18 17 17 17 16 16 15 14 13 12 11 10 9 8 7 6 6 5 5 4 4 4 3 4 3 2 2 1 2 2 3 4 5 5 6
Wind_Direction
324 322 321 321 318 317 320 322 322 320 318 315 310 306 305 307 311 311 307 305 303 300 297 296 295 294 292 289 287 284 280 282 286 292 291 278 267 260 256 256 253 251 251 251 251 247 240 234 232 231 231 231 232 234 234 234 234 234 234 229 223 220 218 217 223 235 221 216 225 229 229 227 224 225 224 224 226 228 228 230 231 231 230 231 232
324 323 323 321 319 319 319 319 319 317 315 313 313 313 313 311 308 304 300 299 297 292 287 286 288 292 293 291 286 279 277 285 290 296 302 297 284 267 254 249 249 248 247 246 247 244 236 231 230 231 230 229 231 233 234 234 232 231 233 232 227 222 218 215 218 229 220 210 215 219 220 220 221 223 223 224 227 227 226 228 230 231 232 231 230
325 323 322 321 319 318 317 315 315 315 313 312 313 313 311 308 305 302 298 298 295 290 282 277 281 289 290 286 283 281 282 287 292 297 302 306 307 297 271 250 245 245 243 243 243 239 232 227 227 228 227 226 229 232 234 234 232 231 233 234 231 227 224 219 219 224 220 210 209 210 210 212 216 221 224 226 227 227 228 229 230 230 231 231 230
325 324 323 322 321 319 317 316 315 314 312 310 309 308 307 305 304 301 300 300 298 292 282 275 277 284 284 282 287 293 293 291 292 295 299 303 307 309 302 281 264 254 247 243 241 237 230 225 225 225 223 223 226 229 231 232 231 230 233 234 232 231 229 224 223 226 225 214 207 209 210 209 211 216 219 219 221 224 226 226 227 228 229 230 230
326 326 324 322 321 320 319 317 316 314 312 309 307 306 305 304 303 303 303 304 301 294 283 277 283 291 291 290 291 291 291 291 291 291 295 301 303 303 302 298 291 278 261 249 242 237 231 227 226 225 221 220 222 225 228 229 229 228 231 233 232 231 230 226 225 227 228 219 206 206 208 206 206 210 212 210 209 213 219 222 224 226 227 229 230
327 326 324 323 322 321 320 319 317 316 314 311 309 308 306 305 304 303 303 303 304 299 291 292 303 305 300 294 291 289 289 290 289 287 288 293 298 298 294 292 291 288 280 265 251 241 236 232 231 227 222 220 220 221 224 227 227 227 228 230 231 229 226 224 223 224 226 224 212 199 198 199 200 203 207 206 203 202 205 212 220 223 225 225 227
327 327 326 325 323 322 322 321 320 319 317 315 312 310 309 306 304 302 300 300 301 300 299 300 302 302 298 294 291 287 286 285 284 282 283 285 289 291 291 289 286 285 285 281 267 252 243 240 237 233 228 225 223 221 223 225 227 227 227 228 229 228 224 221 220 219 220 221 215 199 194 198 199 200 203 202 202 204 201 199 205 214 219 221 222
328 327 326 325 324 323 323 322 321 320 318 316 314 312 310 307 304 301 299 297 297 296 296 296 295 295 292 290 286 280 278 279 278 276 277 279 281 282 284 283 281 281 282 283 279 265 252 246 243 240 235 232 230 227 226 226 225 226 227 227 227 227 225 220 218 216 215 216 212 198 193 195 195 196 194 189 191 201 203 199 198 203 209 215 219
329 328 327 326 325 324 323 321 320 318 317 316 315 313 312 309 306 303 298 295 294 293 292 291 291 290 288 286 283 278 274 272 272 272 272 274 275 275 276 275 274 274 275 277 278 273 261 251 246 244 241 239 237 234 232 231 228 227 228 227 224 225 226 222 218 213 211 213 207 192 187 190 190 185 181 185 194 202 201 197 196 200 203 207 214
329 329 326 325 324 323 322 320 319 318 317 316 315 314 312 310 307 303 298 295 294 294 293 291 289 287 286 285 282 278 274 271 270 269 267 267 268 268 269 268 266 265 266 269 272 271 264 255 250 247 244 242 240 239 238 236 233 233 234 232 226 223 223 221 218 213 210 211 200 186 182 187 191 190 189 196 202 201 195 192 191 190 189 194 209
329 327 325 324 324 323 322 321 319 318 317 316 315 313 312 309 306 302 298 296 295 295 294 292 290 289 286 284 282 278 276 275 271 267 264 262 261 261 263 263 261 259 259 260 263 266 262 256 254 250 245 242 240 240 240 237 235 235 238 238 233 227 223 219 215 212 211 211 197 186 184 188 193 197 200 201 200 197 196 194 186 177 175 181 200
327 326 325 325 324 323 322 320 319 318 317 316 315 313 311 308 305 302 298 296 294 293 292 290 290 290 286 282 281 279 279 278 271 265 264 261 258 256 256 257 257 255 253 252 254 259 261 259 256 253 248 243 241 241 240 238 236 234 236 238 236 232 228 225 220 214 210 210 199 187 189 193 194 197 200 201 198 196 196 192 185 180 182 187 195
327 326 325 325 324 323 322 320 319 318 317 316 314 313 310 307 305 302 299 297 293 290 288 288 289 290 288 286 285 284 283 281 273 266 264 262 257 253 251 251 252 250 248 248 250 252 256 257 256 254 251 246 243 243 242 241 239 235 235 236 235 233 231 230 228 224 218 213 205 199 200 197 195 200 203 202 196 190 187 188 189 189 189 194 200
327 326 325 325 324 324 323 321 320 318 317 317 315 313 311 308 306 304 301 297 295 292 291 291 294 297 297 296 296 295 294 291 283 272 267 262 256 252 248 247 248 248 245 245 246 248 250 251 252 252 251 248 244 242 243 243 240 235 231 231 231 231 229 226 227 229 227 221 216 215 212 207 206 210 209 204 199 194 192 193 193 193 195 198 203
327 326 326 326 325 326 324 322 321 319 318 318 316 314 313 310 309 308 305 302 302 302 302 301 303 306 305 302 300 299 301 302 293 280 271 264 257 252 247 243 241 243 245 244 243 245 246 246 247 248 248 248 245 243 243 244 240 232 226 223 224 227 226 224 223 225 229 229 226 223 221 218 219 220 216 211 210 209 207 205 201 196 192 189 189
328 328 327 326 326 327 325 323 321 319 319 318 316 314 313 311 313 314 311 309 309 308 308 309 310 310 310 308 302 299 305 311 305 293 281 268 258 250 245 242 237 235 238 241 241 242 243 242 242 243 244 244 244 244 245 244 237 228 221 216 215 218 222 223 225 227 229 231 231 229 227 225 225 225 223 219 216 214 209 204 198 189 177 167 168
330 329 328 327 327 326 325 324 322 320 320 318 315 314 313 314 319 322 318 314 314 315 315 316 316 315 314 314 309 304 309 316 313 306 294 279 268 257 245 239 236 231 232 236 238 239 239 239 238 239 241 241 241 242 243 241 232 223 217 212 209 211 217 222 225 230 230 228 229 229 228 226 223 224 225 224 219 213 201 189 186 182 171 161 166
331 330 328 327 326 326 326 324 323 322 321 320 317 317 318 319 323 326 322 316 316 319 320 319 318 317 317 317 313 306 307 311 311 307 303 298 300 293 261 239 233 231 230 233 235 236 237 237 235 235 237 239 239 239 240 236 226 218 213 208 204 206 213 219 219 219 222 223 223 222 220 217 213 213 216 218 219 215 206 197 190 182 176 177 177
330 328 326 326 325 326 325 324 324 323 322 321 321 320 321 323 326 326 323 319 318 320 320 319 316 316 317 316 314 309 308 315 320 315 310 307 312 318 311 282 256 243 234 231 231 232 233 234 234 233 235 237 237 235 235 230 221 215 211 205 201 205 212 217 216 214 213 216 218 217 212 206 202 202 206 210 214 215 214 210 199 188 185 186 176
328 327 325 326 326 326 326 326 325 325 323 323 324 323 324 326 328 328 326 324 323 323 323 321 317 318 321 320 319 317 314 319 327 325 314 308 305 307 309 307 299 285 267 243 228 227 228 230 230 230 231 233 233 230 229 225 217 214 210 203 202 208 213 216 217 217 216 217 218 218 213 207 203 201 203 207 210 212 213 212 206 200 194 186 181
327 327 327 327 327 328 328 328 327 327 327 326 326 325 326 327 327 328 327 326 326 325 325 324 320 321 325 325 324 327 327 325 328 330 319 304 299 297 293 290 285 274 269 265 248 234 232 233 235 232 228 227 227 225 225 222 216 212 211 211 213 214 214 216 217 216 216 218 217 215 213 210 207 204 203 205 207 209 210 210 211 209 203 196 192
328 328 327 328 328 329 330 330 330 330 330 330 328 326 327 328 327 327 327 326 325 324 323 324 322 323 327 329 328 331 335 334 330 331 323 303 295 293 283 276 275 265 251 252 256 251 242 240 242 240 232 227 225 223 223 222 218 215 215 219 222 217 212 216 215 208 208 213 212 208 208 207 206 204 203 203 205 207 209 210 212 213 212 212 209
329 328 329 329 329 330 331 331 332 332 332 332 330 327 328 330 329 329 328 326 325 324 324 326 325 323 325 329 330 333 337 338 334 331 326 309 297 296 287 271 261 256 250 251 257 257 252 248 245 242 238 234 232 229 228 227 225 221 219 221 222 216 207 207 205 199 198 202 201 200 202 200 200 202 203 203 203 204 205 206 208 209 209 212 214
330 329 330 330 331 333 333 333 334 335 334 334 331 328 329 329 329 329 330 327 325 323 324 325 324 321 320 322 326 331 335 339 340 339 335 316 296 292 292 277 257 250 250 253 256 256 257 257 253 248 245 242 238 235 233 232 231 229 223 220 219 214 203 197 195 193 191 192 192 195 198 199 200 203 204 203 202 203 203 201 202 204 205 205 208
330 330 331 331 333 334 335 335 336 337 337 336 333 330 329 328 327 329 329 328 324 320 320 322 319 316 314 314 318 328 338 346 349 348 338 322 308 297 289 280 265 252 250 252 252 251 252 253 253 250 247 245 242 240 239 236 234 233 231 224 217 212 204 197 194 191 187 188 192 195 199 203 208 211 208 204 200 200 199 197 195 197 199 200 198
331 331 331 332 334 335 335 336 337 337 338 338 336 333 330 327 325 325 325 325 323 320 319 318 316 313 312 312 318 332 346 351 353 359 360 355 354 351 335 312 290 265 252 249 248 247 247 246 244 241 238 238 240 242 245 244 239 236 235 228 218 211 205 199 194 192 190 190 192 193 194 199 205 208 204 199 196 195 194 193 189 188 192 191 183
332 331 332 333 334 336 336 335 335 336 337 338 337 336 335 333 328 325 324 324 323 321 318 317 316 315 314 319 329 341 346 351 3 15 18 20 23 22 16 7 359 342 290 260 252 249 247 245 243 239 235 234 234 236 242 246 244 240 237 230 221 214 208 202 199 197 195 192 189 188 188 190 196 198 193 189 189 190 191 191 186 182 184 186 176
333 332 333 334 335 336 336 335 335 335 336 338 338 336 336 336 333 331 332 331 326 325 325 326 329 329 327 328 334 335 338 357 20 25 20 23 26 23 18 14 10 9 2 316 271 256 250 248 248 245 238 229 221 221 227 233 236 238 235 231 224 216 208 202 198 196 193 187 183 181 180 182 186 187 185 183 183 184 185 186 184 179 178 179 171
334 334 334 335 335 336 336 336 336 336 337 339 340 340 340 339 335 335 341 342 339 340 343 345 346 346 346 350 353 348 354 16 28 23 20 23 22 19 17 15 11 8 5 347 283 236 225 223 224 223 214 197 187 188 195 201 210 216 216 214 212 205 196 189 186 185 184 182 179 176 175 175 177 178 177 176 177 179 180 181 180 175 173 173 170
335 334 335 335 335 336 335 335 337 338 339 340 340 342 346 350 349 347 346 347 349 353 355 357 359 0 4 12 19 20 23 26 22 17 18 18 16 16 16 14 15 12 2 353 37 101 100 91 85 100 134 147 150 153 150 145 145 151 163 174 179 179 178 177 177 176 177 178 177 174 172 170 169 170 171 170 171 172 175 178 177 172 170 168 164
334 333 334 334 334 335 334 335 336 338 340 340 339 339 343 347 351 352 351 351 353 357 359 3 7 8 11 17 21 22 22 21 16 14 16 14 15 19 17 15 21 17 360 3 63 78 80 77 69 73 92 105 110 120 130 132 130 129 131 139 151 160 165 168 171 170 169 169 169 168 168 167 165 166 168 167 165 167 169 172 171 168 168 167 165
333 332 333 333 334 335 334 335 336 337 338 340 341 339 338 339 343 346 350 353 355 357 2 6 8 9 13 19 21 20 20 19 16 14 13 11 14 23 25 26 27 18 5 45 75 71 70 74 70 70 80 86 90 103 113 116 120 127 129 128 133 145 153 158 163 164 162 159 158 158 160 162 162 163 165 165 162 161 162 162 163 163 163 163 164
335 333 333 333 333 335 335 335 336 337 337 338 340 340 339 338 339 340 344 350 356 1 7 9 8 8 11 16 20 22 22 22 22 19 15 12 12 21 32 39 40 38 48 71 72 63 62 70 71 72 79 83 87 98 106 110 116 122 124 124 126 131 139 146 152 154 154 155 156 156 157 159 160 159 160 162 161 158 157 158 159 160 158 156 158
339 337 337 336 335 335 336 336 336 336 338 339 340 339 339 342 344 341 341 349 354 357 2 6 8 9 9 11 17 21 23 25 26 23 21 19 18 26 45 54 53 53 61 68 66 59 59 63 65 71 81 86 91 97 102 109 116 120 121 122 124 127 134 141 146 148 150 153 156 158 161 163 162 159 157 157 157 156 156 158 159 159 158 157 156
343 341 342 341 339 337 336 337 337 337 339 341 340 338 338 342 347 348 348 351 352 350 351 356 3 7 8 10 14 19 22 25 27 28 28 28 33 45 52 50 47 47 52 58 61 61 63 64 66 74 83 89 96 102 106 111 117 121 122 124 126 129 133 139 142 145 150 155 157 160 163 163 163 162 160 158 157 157 157 160 163 164 163 161 158
345 344 343 343 342 339 338 338 340 340 340 340 339 339 342 347 351 354 354 355 354 351 348 350 357 4 9 12 15 18 21 24 30 35 34 34 41 49 49 43 39 40 44 49 54 60 64 67 72 79 87 96 102 107 113 118 120 124 127 129 132 135 137 141 144 147 151 154 156 158 160 160 160 161 159 157 158 160 160 161 163 164 165 163 161
347 345 343 343 342 341 340 340 341 341 342 343 343 345 349 353 355 358 359 357 356 356 355 355 359 4 7 10 13 16 21 29 37 43 42 42 46 48 46 41 39 40 41 42 47 53 56 60 70 82 91 99 105 111 117 121 124 128 131 133 135 138 141 144 149 152 153 153 154 156 158 158 160 161 159 155 154 157 159 160 160 160 163 164 161
349 348 347 345 343 343 342 342 343 345 346 348 349 350 355 357 357 358 0 360 358 360 2 3 3 2 2 4 8 14 23 31 35 37 37 39 42 41 39 39 41 41 41 42 44 48 51 54 66 80 87 93 100 107 114 120 125 129 131 132 132 136 140 144 149 153 154 154 154 157 158 158 159 162 162 159 158 159 161 162 161 158 159 162 163
350 350 351 349 346 346 344 343 345 347 349 350 351 352 357 0 360 358 359 360 0 2 5 8 7 5 3 4 8 16 24 28 28 27 28 31 34 34 34 37 40 40 40 41 42 44 47 50 60 75 81 83 87 94 104 115 122 126 130 132 134 138 143 146 148 151 154 154 155 158 159 159 160 164 166 165 165 164 163 163 164 163 162 164 168
350 351 352 351 350 348 347 347 349 350 351 351 350 352 358 2 2 360 0 2 4 3 5 8 7 6 6 7 10 17 22 21 19 21 22 25 29 30 32 35 36 35 37 40 41 41 42 44 51 65 74 78 79 82 93 108 120 129 135 139 141 142 145 148 151 154 156 157 157 159 160 161 163 165 168 169 169 168 166 165 167 168 167 168 170
352 352 353 354 353 352 352 353 352 352 353 354 354 356 0 3 4 5 6 8 8 4 4 8 7 5 6 8 11 18 22 19 19 24 24 23 24 28 31 33 34 33 34 37 38 38 38 39 43 51 62 71 75 78 85 98 115 130 139 144 146 146 148 151 155 157 158 159 160 161 162 164 166 167 167 167 167 167 168 167 167 168 169 169 171
355 355 355 356 357 356 355 355 354 355 358 360 360 2 3 3 6 9 10 12 11 7 5 6 6 5 6 8 11 19 26 25 24 27 26 24 25 29 32 33 33 32 33 33 35 37 36 36 42 49 55 62 64 64 69 82 100 124 139 147 150 149 150 153 155 157 159 160 160 161 162 162 164 165 165 165 165 166 167 167 166 168 170 172 174
358 358 358 359 0 0 358 357 358 360 1 1 1 4 7 8 10 12 13 14 13 10 7 5 4 4 6 9 15 24 28 26 23 24 26 26 27 30 32 32 33 34 33 32 36 39 37 37 42 47 51 56 55 50 49 55 65 91 124 141 147 147 149 151 152 156 159 158 157 159 160 159 160 160 159 161 164 165 166 168 170 171 172 173 176
360 1 2 2 4 5 3 3 5 4 3 4 5 9 12 13 13 14 15 14 13 10 8 7 5 4 6 12 18 24 26 25 23 23 25 28 28 29 30 32 34 36 35 34 36 40 43 44 47 50 54 58 56 51 50 52 54 65 92 128 141 142 143 146 147 151 155 155 154 156 157 156 156 156 156 160 164 167 169 172 174 175 176 178 181
2 3 4 5 7 8 7 6 7 8 9 11 12 13 14 15 15 14 14 13 12 10 9 8 8 7 8 11 15 17 21 25 26 25 25 28 29 29 31 34 36 38 39 39 39 41 45 49 51 55 59 60 57 54 55 58 62 70 79 93 113 125 130 134 138 143 149 152 153 154 155 157 158 158 159 164 170 174 177 181 184 186 187 190 194
4 5 7 8 9 9 9 8 8 9 12 14 14 13 13 14 14 13 12 12 12 12 11 10 10 10 9 9 11 14 20 25 28 28 28 30 31 33 35 37 38 40 41 42 43 45 47 50 52 54 55 55 54 54 57 63 72 81 88 94 104 114 120 124 129 135 143 149 153 154 157 162 165 167 171 176 179 184 188 190 194 198 198 200 204
7 7 8 9 10 11 12 11 10 10 12 14 15 14 13 13 14 13 11 10 12 13 13 13 12 12 13 14 14 18 23 26 28 30 32 33 35 37 39 39 41 41 42 43 45 46 48 51 52 52 52 52 53 57 63 73 81 89 95 101 106 113 118 120 123 127 133 142 154 160 166 172 176 179 184 185 186 190 194 194 198 205 207 209 213
10 9 8 9 10 11 13 13 13 12 12 12 13 14 14 15 16 14 10 9 10 11 13 15 14 14 16 18 18 20 24 26 28 31 34 36 39 40 41 42 42 42 43 44 45 46 49 52 54 55 56 57 58 62 68 77 85 91 98 103 106 110 113 116 119 121 126 135 146 153 164 178 182 184 191 194 195 200 203 203 206 210 209 210 214
13 12 10 9 9 9 10 12 13 14 14 13 13 14 15 16 16 14 12 12 11 10 11 13 14 15 17 18 19 21 23 25 28 31 34 37 40 43 43 44 44 44 44 44 44 45 47 50 53 56 59 60 62 66 69 74 80 88 94 98 102 106 108 109 113 116 119 127 136 142 153 168 175 180 191 196 197 202 204 202 204 208 206 209 219
14 14 13 10 9 8 9 10 12 14 15 15 15 14 14 14 14 13 12 13 13 12 11 11 13 14 16 17 19 21 23 25 27 30 32 35 39 41 43 44 44 44 44 44 44 44 46 48 50 54 58 61 65 69 72 74 77 82 86 89 94 99 102 105 111 117 121 127 138 145 152 158 159 162 169 174 177 187 196 197 205 218 225 234 246
15 16 15 13 12 12 11 10 10 11 11 11 12 12 12 12 12 12 12 12 13 12 12 12 12 13 15 17 20 22 24 26 28 31 33 34 35 36 38 39 40 41 41 41 42 42 43 45 48 50 53 58 62 66 70 72 74 76 80 84 87 91 95 99 104 110 115 119 123 121 118 120 123 127 134 141 153 186 232 251 255 259 264 265 265